Location: Gorrie
(43.8742°N, 81.1087°W)
Time: 02:22:32
(UTC+00:00)

Cosmos 2058 Rocket - Pass Details

Date: 09 December 2025
Orbit: 603 x 633 km, 82.5° (Epoch: 12 January)

Event Time Altitude Azimuth Distance (km) Brightness Sun altitude
Exits shadow 11:05:48 - 351° (N) 2,298 5.7 -17.5°
Reaches altitude 10° 11:06:31 10° 351° (N) 2,008 5.4 -17.4°
Maximum altitude 11:10:58 88° 264° (W) 627 3.0 -16.6°
Drops below altitude 10° 11:15:21 10° 174° (S) 1,973 5.9 -15.9°
Sets 11:17:33 0° 174° (S) 2,868 6.8 -15.5°
